KLM154 UZTT-UAAA

Flight info

Callsign KLM154
Flight time 1h 4m
Altitude 37000
Route TISIB2E/08L TISIB P984 LAKEL LAKEL2J
Aircraft MD11/H-SDE1E2E3FGHIJ2J3J4J5M1RWXY/LB1D1

Departure

Time 2026-04-25 17:57
Airport Tashkent International Airport (UZTT)

Arrival

Time 2026-04-25 19:01
Airport Almaty International Airport (UAAA)
Time Latitude Longitude Altitude Speed Heading
2026-04-25 17:35 41.26181 69.26882 1388 ft 0 kts 356°
2026-04-25 17:46 41.26178 69.26883 1388 ft 3 kts 355°
2026-04-25 17:47 41.26152 69.26889 1385 ft 4 kts 336°
2026-04-25 17:47 41.26130 69.26907 1384 ft 4 kts 314°
2026-04-25 17:47 41.26113 69.26935 1383 ft 4 kts 304°
2026-04-25 17:47 41.26099 69.26958 1383 ft 4 kts 315°
2026-04-25 17:48 41.26094 69.27016 1384 ft 1 kts 247°
2026-04-25 17:52 41.26091 69.27005 1385 ft 4 kts 247°
2026-04-25 17:52 41.26084 69.26982 1383 ft 7 kts 247°
2026-04-25 17:52 41.26039 69.26837 1386 ft 14 kts 247°
2026-04-25 17:52 41.26001 69.26720 1383 ft 13 kts 245°
2026-04-25 17:53 41.25949 69.26577 1384 ft 18 kts 244°
2026-04-25 17:53 41.25879 69.26449 1385 ft 16 kts 221°
2026-04-25 17:53 41.25788 69.26346 1384 ft 15 kts 228°
2026-04-25 17:53 41.25731 69.26240 1386 ft 13 kts 239°
2026-04-25 17:54 41.25692 69.26136 1386 ft 11 kts 248°
2026-04-25 17:54 41.25676 69.26085 1385 ft 0 kts 248°
2026-04-25 17:54 41.25676 69.26083 1385 ft 0 kts 248°
2026-04-25 17:55 41.25668 69.26068 1387 ft 2 kts 231°
2026-04-25 17:55 41.25659 69.26062 1384 ft 1 kts 206°
2026-04-25 17:55 41.25640 69.26063 1385 ft 1 kts 171°
2026-04-25 17:55 41.25634 69.26077 1386 ft 4 kts 120°
2026-04-25 17:56 41.25627 69.26170 1386 ft 15 kts 85°
2026-04-25 17:56 41.25635 69.26246 1385 ft 11 kts 81°
2026-04-25 17:56 41.25658 69.26424 1389 ft 28 kts 81°
2026-04-25 17:56 41.25728 69.27049 1386 ft 118 kts 82°
2026-04-25 17:57 41.25894 69.28387 1456 ft 180 kts 82°
2026-04-25 17:57 41.26018 69.30159 2373 ft 202 kts 86°
2026-04-25 17:57 41.26176 69.31930 3867 ft 179 kts 84°
2026-04-25 17:57 41.26238 69.32471 4468 ft 172 kts 84°
2026-04-25 17:58 41.26578 69.35494 5770 ft 235 kts 83°
2026-04-25 17:58 41.26821 69.37679 6916 ft 242 kts 83°
2026-04-25 17:58 41.27069 69.39922 8199 ft 249 kts 82°
2026-04-25 17:58 41.27321 69.42225 9405 ft 255 kts 82°
2026-04-25 17:59 41.27572 69.44560 10519 ft 261 kts 83°
2026-04-25 17:59 41.27618 69.46991 11568 ft 266 kts 99°
2026-04-25 17:59 41.26959 69.49273 12657 ft 268 kts 128°
2026-04-25 17:59 41.25548 69.50851 13733 ft 268 kts 159°
2026-04-25 18:00 41.23736 69.51277 14712 ft 266 kts 188°
2026-04-25 18:00 41.21949 69.50644 15642 ft 269 kts 202°
2026-04-25 18:00 41.20091 69.49967 16206 ft 294 kts 188°
2026-04-25 18:00 41.17930 69.50336 16351 ft 337 kts 160°
2026-04-25 18:01 41.15892 69.52162 16489 ft 375 kts 134°
2026-04-25 18:01 41.14407 69.55145 16850 ft 400 kts 114°
2026-04-25 18:01 41.13703 69.58733 17723 ft 407 kts 96°
2026-04-25 18:01 41.13696 69.62522 18541 ft 414 kts 86°
2026-04-25 18:02 41.13901 69.66353 19306 ft 419 kts 86°
2026-04-25 18:02 41.14013 69.70244 20062 ft 424 kts 89°
2026-04-25 18:02 41.13966 69.74184 20812 ft 429 kts 92°
2026-04-25 18:02 41.13784 69.78113 21537 ft 434 kts 95°
2026-04-25 18:03 41.13509 69.82128 22304 ft 439 kts 96°
2026-04-25 18:03 41.13182 69.86176 23060 ft 445 kts 96°
2026-04-25 18:03 41.12825 69.90272 23795 ft 451 kts 97°
2026-04-25 18:03 41.12466 69.94306 24484 ft 455 kts 97°
2026-04-25 18:04 41.12092 69.98501 25154 ft 460 kts 96°
2026-04-25 18:04 41.11716 70.02740 25831 ft 466 kts 96°
2026-04-25 18:04 41.11337 70.07033 26544 ft 471 kts 96°
2026-04-25 18:04 41.10955 70.11374 27207 ft 476 kts 96°
2026-04-25 18:05 41.10570 70.15768 27859 ft 482 kts 96°
2026-04-25 18:05 41.10185 70.20210 28502 ft 488 kts 95°
2026-04-25 18:05 41.09829 70.24704 29205 ft 492 kts 93°
2026-04-25 18:05 41.09764 70.29195 29829 ft 495 kts 84°
2026-04-25 18:06 41.10284 70.33696 30425 ft 496 kts 72°
2026-04-25 18:06 41.11401 70.38025 31065 ft 494 kts 64°
2026-04-25 18:06 41.12809 70.42184 31770 ft 493 kts 62°
2026-04-25 18:06 41.14309 70.46272 32470 ft 492 kts 61°
2026-04-25 18:07 41.15808 70.50356 33171 ft 492 kts 61°
2026-04-25 18:07 41.17273 70.54463 33846 ft 492 kts 62°
2026-04-25 18:07 41.18696 70.58575 34549 ft 489 kts 63°
2026-04-25 18:07 41.20088 70.62692 35127 ft 488 kts 63°
2026-04-25 18:08 41.21459 70.66803 35666 ft 487 kts 63°
2026-04-25 18:08 41.22828 70.70928 36084 ft 488 kts 63°
2026-04-25 18:08 41.24193 70.75056 36449 ft 487 kts 63°
2026-04-25 18:08 41.25551 70.79173 36822 ft 487 kts 64°
2026-04-25 18:09 41.26840 70.83336 37147 ft 488 kts 65°
2026-04-25 18:09 41.29232 70.91753 37228 ft 491 kts 67°
2026-04-25 18:10 41.31592 71.00303 37225 ft 491 kts 66°
2026-04-25 18:10 41.33961 71.08838 37215 ft 492 kts 66°
2026-04-25 18:11 41.36345 71.17396 37203 ft 492 kts 66°
2026-04-25 18:11 41.38744 71.26017 37206 ft 502 kts 66°
2026-04-25 18:12 41.41156 71.34735 37217 ft 505 kts 67°
2026-04-25 18:12 41.43569 71.43519 37217 ft 505 kts 67°
2026-04-25 18:13 41.45974 71.52257 37216 ft 504 kts 67°
2026-04-25 18:13 41.48380 71.60997 37219 ft 502 kts 67°
2026-04-25 18:14 41.51973 71.74101 37216 ft 501 kts 67°
2026-04-25 18:14 41.54356 71.82826 37217 ft 500 kts 67°
2026-04-25 18:15 41.56734 71.91572 37218 ft 500 kts 67°
2026-04-25 18:15 41.59096 72.00286 37226 ft 498 kts 67°
2026-04-25 18:16 41.61449 72.09001 37250 ft 497 kts 67°
2026-04-25 18:17 41.64943 72.21995 37235 ft 496 kts 68°
2026-04-25 18:17 41.67271 72.30688 37248 ft 496 kts 68°
2026-04-25 18:18 41.69575 72.39372 37245 ft 495 kts 68°
2026-04-25 18:18 41.71855 72.48082 37241 ft 495 kts 68°
2026-04-25 18:19 41.74140 72.56763 37237 ft 494 kts 68°
2026-04-25 18:19 41.76427 72.65437 37245 ft 492 kts 68°
2026-04-25 18:20 41.78691 72.74041 37240 ft 492 kts 68°
2026-04-25 18:20 41.80960 72.82699 37244 ft 492 kts 68°
2026-04-25 18:21 41.83222 72.91359 37241 ft 492 kts 68°
2026-04-25 18:21 41.85458 73.00011 37251 ft 490 kts 68°
2026-04-25 18:22 41.87685 73.08650 37248 ft 490 kts 68°
2026-04-25 18:22 41.89916 73.17295 37258 ft 489 kts 68°
2026-04-25 18:23 41.91768 73.24480 37263 ft 489 kts 68°
2026-04-25 18:23 41.94336 73.34479 37270 ft 488 kts 69°
2026-04-25 18:24 41.96542 73.43107 37269 ft 487 kts 69°
2026-04-25 18:24 41.98743 73.51746 37277 ft 487 kts 69°
2026-04-25 18:25 42.00567 73.58926 37277 ft 487 kts 69°
2026-04-25 18:25 42.02750 73.67546 37279 ft 487 kts 69°
2026-04-25 18:26 42.04286 73.73636 37276 ft 487 kts 69°
2026-04-25 18:26 42.06501 73.82199 37275 ft 486 kts 68°
2026-04-25 18:27 42.08796 73.90775 37279 ft 486 kts 68°
2026-04-25 18:27 42.11103 73.99343 37278 ft 486 kts 68°
2026-04-25 18:28 42.13401 74.07914 37283 ft 486 kts 68°
2026-04-25 18:28 42.15694 74.16507 37286 ft 486 kts 68°
2026-04-25 18:29 42.19096 74.29324 37288 ft 486 kts 68°
2026-04-25 18:30 42.23636 74.46529 37304 ft 486 kts 68°
2026-04-25 18:30 42.25894 74.55136 37312 ft 486 kts 68°
2026-04-25 18:31 42.28137 74.63713 37294 ft 486 kts 68°
2026-04-25 18:31 42.30385 74.72341 37299 ft 486 kts 68°
2026-04-25 18:32 42.32619 74.80952 37290 ft 486 kts 69°
2026-04-25 18:32 42.34819 74.89592 37293 ft 486 kts 69°
2026-04-25 18:33 42.37027 74.98247 37291 ft 486 kts 69°
2026-04-25 18:33 42.39229 75.06837 37274 ft 486 kts 69°
2026-04-25 18:34 42.41463 75.15476 37252 ft 485 kts 67°
2026-04-25 18:34 42.44137 75.23853 37227 ft 484 kts 63°
2026-04-25 18:35 42.47052 75.32079 37227 ft 484 kts 62°
2026-04-25 18:35 42.49960 75.40311 37206 ft 484 kts 62°
2026-04-25 18:36 42.52830 75.48560 37213 ft 484 kts 63°
2026-04-25 18:36 42.55690 75.56846 37204 ft 485 kts 63°
2026-04-25 18:37 42.58523 75.65081 37197 ft 485 kts 63°
2026-04-25 18:37 42.61366 75.73370 37207 ft 484 kts 63°
2026-04-25 18:38 42.64203 75.81662 37198 ft 485 kts 63°
2026-04-25 18:38 42.67041 75.89979 37196 ft 486 kts 63°
2026-04-25 18:39 42.69878 75.98321 37198 ft 486 kts 63°
2026-04-25 18:39 42.72714 76.06688 37195 ft 486 kts 63°
2026-04-25 18:40 42.75533 76.15031 37211 ft 486 kts 63°
2026-04-25 18:40 42.78326 76.23394 37216 ft 484 kts 64°
2026-04-25 18:41 42.81054 76.31613 36908 ft 472 kts 63°
2026-04-25 18:41 42.82412 76.35685 36590 ft 471 kts 63°
2026-04-25 18:41 42.83772 76.39756 36164 ft 470 kts 63°
2026-04-25 18:42 42.85129 76.43815 35613 ft 469 kts 63°
2026-04-25 18:42 42.86024 76.46495 35247 ft 469 kts 63°
2026-04-25 18:42 42.87828 76.51904 34515 ft 468 kts 64°
2026-04-25 18:42 42.89177 76.55954 33909 ft 468 kts 63°
2026-04-25 18:43 42.90694 76.59861 33269 ft 466 kts 54°
2026-04-25 18:43 42.92737 76.63272 32672 ft 464 kts 42°
2026-04-25 18:43 42.95204 76.66100 32103 ft 464 kts 34°
2026-04-25 18:43 42.97849 76.68643 31499 ft 466 kts 32°
2026-04-25 18:44 43.00540 76.71123 30896 ft 467 kts 32°
2026-04-25 18:44 43.03194 76.73611 30294 ft 470 kts 33°
2026-04-25 18:44 43.05866 76.76198 29606 ft 471 kts 34°
2026-04-25 18:44 43.08527 76.78846 28929 ft 471 kts 34°
2026-04-25 18:45 43.11159 76.81513 28297 ft 469 kts 35°
2026-04-25 18:45 43.13761 76.84175 27669 ft 464 kts 35°
2026-04-25 18:45 43.16331 76.86816 27036 ft 459 kts 35°
2026-04-25 18:45 43.18875 76.89434 26397 ft 454 kts 35°
2026-04-25 18:46 43.21387 76.92017 25791 ft 449 kts 35°
2026-04-25 18:46 43.23875 76.94570 25170 ft 444 kts 35°
2026-04-25 18:46 43.26343 76.97099 24555 ft 440 kts 35°
2026-04-25 18:46 43.28783 76.99596 24052 ft 435 kts 35°
2026-04-25 18:47 43.31205 77.02075 23742 ft 433 kts 34°
2026-04-25 18:47 43.33554 77.04482 23572 ft 414 kts 34°
2026-04-25 18:47 43.35813 77.06803 23228 ft 397 kts 34°
2026-04-25 18:47 43.38010 77.09044 22725 ft 389 kts 34°
2026-04-25 18:48 43.40168 77.11221 21885 ft 383 kts 34°
2026-04-25 18:48 43.42348 77.13291 20353 ft 386 kts 27°
2026-04-25 18:48 43.44942 77.14568 18633 ft 404 kts
2026-04-25 18:48 43.47699 77.14628 17716 ft 394 kts 351°
2026-04-25 18:49 43.50307 77.13587 16764 ft 388 kts 333°
2026-04-25 18:49 43.52520 77.11546 15839 ft 381 kts 316°
2026-04-25 18:49 43.54126 77.08733 14949 ft 376 kts 298°
2026-04-25 18:49 43.54998 77.05384 14075 ft 370 kts 279°
2026-04-25 18:50 43.55031 77.01871 13119 ft 366 kts 261°
2026-04-25 18:50 43.54221 76.98593 12509 ft 357 kts 246°
2026-04-25 18:50 43.53033 76.95536 11374 ft 363 kts 240°
2026-04-25 18:50 43.51768 76.92651 10524 ft 339 kts 239°
2026-04-25 18:51 43.50567 76.89975 9688 ft 318 kts 239°
2026-04-25 18:51 43.49807 76.88290 9092 ft 307 kts 239°
2026-04-25 18:51 43.48338 76.85035 7907 ft 292 kts 239°
2026-04-25 18:51 43.47317 76.82664 7061 ft 284 kts 242°
2026-04-25 18:52 43.46360 76.80324 6360 ft 274 kts 234°
2026-04-25 18:52 43.44994 76.78729 6226 ft 246 kts 205°
2026-04-25 18:52 43.43383 76.78123 6138 ft 237 kts 190°
2026-04-25 18:52 43.41763 76.77752 6016 ft 235 kts 190°
2026-04-25 18:53 43.40164 76.77318 5889 ft 233 kts 192°
2026-04-25 18:53 43.38582 76.76805 5775 ft 233 kts 194°
2026-04-25 18:53 43.37022 76.76236 5651 ft 232 kts 195°
2026-04-25 18:53 43.35488 76.75630 5542 ft 232 kts 197°
2026-04-25 18:54 43.32388 76.74443 5217 ft 230 kts 187°
2026-04-25 18:54 43.30806 76.74598 5172 ft 229 kts 162°
2026-04-25 18:54 43.29394 76.75577 5195 ft 223 kts 147°
2026-04-25 18:55 43.28171 76.76687 5169 ft 199 kts 145°
2026-04-25 18:55 43.27062 76.77724 5171 ft 188 kts 145°
2026-04-25 18:55 43.26023 76.78790 5188 ft 186 kts 136°
2026-04-25 18:55 43.25267 76.80205 5170 ft 184 kts 115°
2026-04-25 18:56 43.25015 76.81915 5169 ft 185 kts 87°
2026-04-25 18:56 43.25457 76.83511 5222 ft 183 kts 60°
2026-04-25 18:56 43.26096 76.85015 5056 ft 180 kts 62°
2026-04-25 18:56 43.26718 76.86490 4848 ft 178 kts 60°
2026-04-25 18:57 43.27339 76.87896 4580 ft 163 kts 58°
2026-04-25 18:57 43.27941 76.89135 4356 ft 152 kts 56°
2026-04-25 18:57 43.28524 76.90321 4201 ft 150 kts 54°
2026-04-25 18:57 43.28724 76.90718 4128 ft 150 kts 54°
2026-04-25 18:58 43.29690 76.92678 3841 ft 148 kts 57°
2026-04-25 18:58 43.30829 76.95005 3466 ft 146 kts 57°
2026-04-25 18:58 43.31398 76.96165 3238 ft 147 kts 56°
2026-04-25 18:59 43.32537 76.98391 2737 ft 142 kts 59°
2026-04-25 18:59 43.33675 77.00836 2415 ft 156 kts 57°
2026-04-25 19:00 43.34754 77.03010 2239 ft 105 kts 56°
2026-04-25 19:00 43.35116 77.03756 2240 ft 83 kts 55°
2026-04-25 19:01 43.35628 77.04753 2241 ft 51 kts 56°
2026-04-25 19:01 43.35792 77.05102 2239 ft 28 kts 58°
2026-04-25 19:01 43.35863 77.05169 2239 ft 7 kts 358°
2026-04-25 19:01 43.35904 77.05141 2238 ft 14 kts 332°
2026-04-25 19:02 43.35942 77.05104 2238 ft 0 kts 314°
2026-04-25 19:02 43.35954 77.05083 2239 ft 4 kts 301°
2026-04-25 19:02 43.35948 77.04948 2239 ft 28 kts 252°
2026-04-25 19:03 43.35769 77.04587 2240 ft 34 kts 239°
2026-04-25 19:03 43.35498 77.04078 2239 ft 41 kts 234°
2026-04-25 19:03 43.35342 77.03772 2240 ft 27 kts 237°
2026-04-25 19:04 43.35147 77.03360 2242 ft 26 kts 237°
2026-04-25 19:04 43.35009 77.03076 2240 ft 44 kts 235°
2026-04-25 19:05 43.34825 77.02708 2240 ft 20 kts 238°
2026-04-25 19:05 43.34775 77.02364 2238 ft 19 kts 269°
2026-04-25 19:05 43.34780 77.02180 2234 ft 20 kts 273°
2026-04-25 19:06 43.34789 77.02038 2231 ft 0 kts 276°
2026-04-25 19:06 43.34796 77.01948 2233 ft 7 kts 275°
2026-04-25 19:06 43.34802 77.01863 2229 ft 13 kts 276°
2026-04-25 19:07 43.34816 77.01618 2225 ft 12 kts 274°
2026-04-25 19:07 43.34816 77.01610 2228 ft 0 kts 274°
2026-04-25 19:09 43.34836 77.01522 2228 ft 5 kts 322°
2026-04-25 19:09 43.34846 77.01512 2225 ft 8 kts 326°
2026-04-25 19:09 43.34856 77.01424 2227 ft 2 kts 250°
2026-04-25 19:10 43.34853 77.01414 2228 ft 0 kts 248°
2026-04-25 19:10 43.34849 77.01400 2228 ft 0 kts 248°
2026-04-25 19:10 43.34847 77.01393 2228 ft 0 kts 247°